Location: B
(0.0000°N, 0.0000°E)
Time: 01:38:31
(UTC+01:00)

Daily predictions for brighter satellites

Satellite Brightness Start Highest point End
(mag) Time Altitude Azimuth Time Altitude Azimuth Time Altitude Azimuth
Cosmos 1833 Rocket 3.7 04:53:19 43° ESE 04:53:19 43° ESE 04:57:22 10° SSE
ARIANE 5 R/B 3.0 04:53:44 82° SSW 04:53:57 83° S 04:58:11 10° E
Cosmos 1655 Rocket 4.3 05:07:48 56° S 05:07:48 56° S 05:12:40 10° S
CZ-3 R/B 4.5 05:08:32 27° WSW 05:14:33 30° SW 05:23:48 10° SSE
Geosat 4.4 05:12:59 10° SSE 05:16:55 56° SSE 05:16:55 56° SSE
CZ-4C R/B 3.1 05:20:49 30° NNE 05:20:49 30° NNE 05:23:22 10° NNE
GPS 2-04 Rocket1 4.3 05:24:09 29° E 05:24:09 29° E 05:26:11 10° ESE
ARIANE 5 R/B 3.6 05:22:14 39° W 05:27:48 79° N 05:32:06 10° E
FUSE 3.8 05:30:05 73° SW 05:30:15 73° SSW 05:35:35 10° ESE
ATLAS 2AS CENTAUR RB 3.3 05:35:49 15° E 05:35:49 15° E 05:36:23 10° E
Cosmos 1400 Rocket 3.1 05:34:15 50° NNE 05:35:05 65° E 05:39:07 10° SSE
SWIFT 2.5 05:35:39 68° SSE 05:35:42 68° SSE 05:39:58 10° ENE
Radarsat Rocket 4.2 05:31:17 10° NNE 05:37:43 75° ESE 05:43:37 10° S
ARIANE 44L R/B 3.2 05:38:57 49° SSE 05:38:57 49° SSE 05:41:20 10° ESE
ARIANE 5 DEB (SYLDA) 3.9 05:36:54 40° WSW 05:38:48 66° S 05:58:00 10° E
Cosmos 1656 Rocket 3.5 05:34:34 10° SSW 05:40:11 83° WNW 05:45:51 10° NNE
GPS 2-18 Rocket1 3.7 05:42:14 47° S 05:42:14 47° S 05:45:38 10° SE
ARIANE DEB (SYLDA) 4.1 05:34:38 27° WSW 05:42:09 55° SSW 05:46:50 10° ESE
Cosmos 1420 Rocket 4.3 05:42:42 10° S 05:47:53 68° ESE 05:53:01 10° NNE
Hubble Space Telescope 1.5 05:53:46 33° NNW 05:55:09 46° NNE 05:59:08 10° ESE
NOAA 6 4.0 05:51:19 10° N 05:56:20 56° WNW 06:01:20 10° SSW
Cosmos 2082 Rocket 3.4 05:57:35 23° WSW 05:57:35 23° WSW 06:01:11 10° SSW
Meteor 1-26 Rocket 4.3 05:55:34 10° SSW 06:01:19 59° W 06:06:58 10° N
CZ-3A R/B 4.0 05:52:05 10° SSW 06:01:29 29° SE 06:04:35 10° E
ATLAS 3B CENTAUR R/B 3.6 05:59:55 10° NNE 06:01:39 13° NE 06:04:04 10° ENE
Cosmos 1315 Rocket 2.8 06:02:04 10° N 06:06:03 88° ENE 06:10:08 10° S
S3M 4.1 05:59:57 10° S 06:06:21 81° E 06:12:43 10° N
ARIANE 5 DEB (SYLDA) 2.9 06:05:17 32° NW 06:06:29 50° N 06:14:36 10° E
Cosmos 1452 Rocket 4.1 06:04:09 10° SW 06:08:53 34° WNW 06:13:37 10° NNW
GEOS 3 Rocket 3.8 06:03:54 10° SE 06:08:58 69° ENE 06:14:00 10° NNW
Ariane V96 H10-3 3.9 06:06:30 17° WSW 06:09:33 32° S 06:11:54 10° ESE
Ariane Rocket 3.2 06:06:12 10° NNE 06:11:14 75° ESE 06:16:18 10° S
COS B Rocket 2.5 06:10:54 10° NNE 06:13:06 57° E 06:15:28 10° S
Sich 1 Rocket 4.3 06:09:36 10° N 06:14:00 58° E 06:18:21 10° SSE
Cosmos 1553 Rocket 3.9 06:10:20 10° S 06:16:23 76° W 06:22:29 10° N
Ariane 5 R/B 3.7 06:14:16 21° W 06:17:05 85° N 06:24:54 10° E
Okean 1-7 3.0 06:13:39 10° SSW 06:17:54 55° W 06:22:07 10° N
Cosmos 1733 Rocket 3.4 06:14:26 10° NNW 06:18:27 40° W 06:22:30 10° SSW
HETE-2 4.5 06:18:38 22° W 06:21:12 79° N 06:25:20 10° E
Gblst 52 Del rocket 4.3 06:17:32 10° SW 06:22:50 50° NW 06:28:19 10° NNE
Meteor 2-10 Rocket 4.2 06:20:09 10° SW 06:24:35 29° W 06:28:56 10° NNW
Cosmos 1408 3.7 06:24:43 15° NW 06:26:47 23° W 06:29:47 10° SSW
Ariane H10-3 3.2 06:19:14 15° W 06:28:57 50° NNW 06:32:13 10° ENE
ATLAS 3B R/B 2.9 06:21:41 10° SSW 06:29:11 65° WNW 06:36:42 10° NNE
Cosmos 1818 4.2 06:24:09 10° N 06:29:25 58° ENE 06:34:42 10° SSE
CZ-2C R/B 3.6 06:25:45 10° NNE 06:30:37 49° ESE 06:35:35 10° S
Cosmos 1908 Rocket 3.5 06:27:23 10° N 06:31:51 82° W 06:36:19 10° S
SeaSat 1 2.9 06:28:24 10° NNE 06:33:18 69° ESE 06:38:12 10° SSW
H-2A R/B 2.5 06:27:00 10° NW 06:34:54 51° NNE 06:37:20 10° E
Cosmos 1782 Rocket 4.4 06:32:37 10° N 06:36:57 56° E 06:41:16 10° SSE
Cosmos 1607 4.0 06:31:45 10° SW 06:37:42 54° WNW 06:43:37 10° N
IUS-13 SRM-1 2.7 06:36:10 12° WNW 06:38:42 88° NNE 06:48:48 10° ESE
CZ-4 R/B 2.4 06:34:58 10° NNE 06:38:57 52° E 06:42:53 10° S
ARIANE 3 DEB 3.4 06:35:38 12° WNW 06:39:24 32° NNW 06:41:50 10° NE
CSL-04 DEB 4.5 06:36:49 10° NNE 06:40:43 79° ESE 06:44:39 10° S
OTV 4 2.8 06:41:25 10° N 06:43:20 17° NE 06:45:14 10° E
Sakura Rocket 3.2 06:40:11 10° WNW 06:45:39 82° NNE 06:49:44 10° ESE
CSL-04 Rocket 3.9 06:41:16 10° N 06:46:31 51° WNW 06:51:50 10° SSW
ARIANE 5 DEB (SYLDA) 3.0 06:44:21 10° W 06:46:48 60° N 06:49:28 10° ENE
Cosmos 1606 2.6 06:43:13 10° S 06:47:00 71° W 06:50:48 10° N
Okean 2 Rocket 3.9 06:45:51 10° N 06:50:10 58° E 06:54:30 10° SSE
CZ-3 Stage 3 4.3 06:45:57 10° NW 06:52:23 79° NE 07:38:54 10° ESE
Milstar 3 Cent rocket 4.1 06:40:01 10° NW 06:54:55 57° NNE 07:01:56 10° ESE
